User: anonymous   Login
Location: Bieg
(49.3499°N, 10.3835°E)
Time: 09:00:10
(UTC+00:00)
Language:

Cosmos 1741 Rocket - Orbit

View from above orbital plane
View from above orbital plane
View from above satellite
View from above satellite

Ground track
Ground track

The orbit data is extracted from the following two-line orbital elements,

1 16682U 86030B   24197.90983605  .00000405  00000-0  14646-3 0  9996
2 16682  74.0250 156.3829 0015631 230.4483 189.8860 14.36641610  2012
Epoch (UTC): 15 July 2024 21:50:09
Eccentricity: 0.0015631
inclination: 74.0250°
perigee height: 758 km
apogee height: 781 km
right ascension of ascending node: 156.3829°
argument of perigee: 230.4483°
revolutions per day: 14.36641610
mean anomaly at epoch: 189.8860°
orbit number at epoch: 201

The dashed part of the orbit path shows where the satellite is in the earth's shadow,  

DLR